| time (UTC) | temp C | wind direction | speed KPH | gust KPH | rain 1hr cm | rain 24hr cm | rain mn cm | humidity % | barometer mb |
| 20260506114544 | 17 | 212 | 6.4 | 6.4 | 0.00 | 0.00 | 0.00 | 81 | 1014.5 |
| 20260506114043 | 17 | 250 | 14.5 | 16.1 | 0.00 | 0.00 | 0.00 | 81 | 1014.3 |
| 20260506113540 | 17 | 229 | 11.3 | 14.5 | 0.00 | 0.00 | 0.00 | 81 | 1014.3 |
| 20260506113037 | 17 | 231 | 6.4 | 6.4 | 0.00 | 0.00 | 0.00 | 81 | 1014.2 |
| 20260506112534 | 17 | 207 | 3.2 | 3.2 | 0.00 | 0.00 | 0.00 | 81 | 1014.4 |
| 20260506112031 | 17 | 178 | 9.7 | 11.3 | 0.00 | 0.00 | 0.00 | 81 | 1014.0 |
| 20260506111529 | 17 | 221 | 8.0 | 11.3 | 0.00 | 0.00 | 0.00 | 81 | 1013.9 |
| 20260506111026 | 17 | 227 | 9.7 | 11.3 | 0.00 | 0.00 | 0.00 | 81 | 1013.8 |
| 20260506110524 | 17 | 220 | 6.4 | 6.4 | 0.00 | 0.00 | 0.00 | 81 | 1013.8 |
| 20260506110021 | 17 | 243 | 8.0 | 9.7 | 0.00 | 0.00 | 0.00 | 80 | 1013.8 |
| 20260506105517 | 17 | 235 | 6.4 | 6.4 | 0.00 | 0.00 | 0.00 | 80 | 1013.6 |
| 20260506105014 | 17 | 158 | 4.8 | 4.8 | 0.00 | 0.00 | 0.00 | 80 | 1013.5 |
| 20260506104512 | 17 | 212 | 4.8 | 4.8 | 0.00 | 0.00 | 0.00 | 80 | 1013.4 |
| 20260506104010 | 17 | 201 | 6.4 | 9.7 | 0.00 | 0.00 | 0.00 | 80 | 1013.3 |
| 20260506103507 | 17 | 227 | 4.8 | 4.8 | 0.00 | 0.00 | 0.00 | 80 | 1013.5 |
| 20260506103003 | 17 | 172 | 8.0 | 9.7 | 0.00 | 0.00 | 0.00 | 79 | 1013.2 |
| 20260506102502 | 17 | 216 | 3.2 | 4.8 | 0.00 | 0.00 | 0.00 | 79 | 1013.1 |
| 20260506101959 | 17 | 204 | 6.4 | 9.7 | 0.00 | 0.00 | 0.00 | 79 | 1013.1 |
| 20260506101455 | 17 | 230 | 9.7 | 11.3 | 0.00 | 0.00 | 0.00 | 79 | 1013.5 |
| 20260506100952 | 17 | 226 | 8.0 | 9.7 | 0.00 | 0.00 | 0.00 | 79 | 1013.4 |
| 20260506100451 | 17 | 207 | 4.8 | 6.4 | 0.00 | 0.00 | 0.00 | 79 | 1013.3 |
| 20260506095948 | 17 | 235 | 8.0 | 9.7 | 0.00 | 0.00 | 0.00 | 79 | 1013.3 |
| 20260506095447 | 17 | 176 | 4.8 | 6.4 | 0.00 | 0.00 | 0.00 | 79 | 1013.2 |
| 20260506094942 | 17 | 214 | 6.4 | 6.4 | 0.00 | 0.00 | 0.00 | 78 | 1013.3 |
| 20260506094441 | 17 | 227 | 4.8 | 4.8 | 0.00 | 0.00 | 0.00 | 78 | 1013.3 |
| 20260506093938 | 17 | 181 | 6.4 | 6.4 | 0.00 | 0.00 | 0.00 | 78 | 1013.2 |
| 20260506093436 | 17 | 227 | 4.8 | 6.4 | 0.00 | 0.00 | 0.00 | 77 | 1013.5 |
| 20260506092934 | 17 | 220 | 9.7 | 12.9 | 0.00 | 0.00 | 0.00 | 77 | 1013.3 |
| 20260506092432 | 17 | 211 | 8.0 | 11.3 | 0.00 | 0.00 | 0.00 | 77 | 1013.3 |
| 20260506091928 | 17 | 174 | 3.2 | 4.8 | 0.00 | 0.00 | 0.00 | 77 | 1013.4 |
| 20260506091426 | 17 | 198 | 8.0 | 9.7 | 0.00 | 0.00 | 0.00 | 76 | 1013.6 |
| 20260506090918 | 17 | 201 | 8.0 | 9.7 | 0.00 | 0.00 | 0.00 | 76 | 1013.5 |
| 20260506090415 | 17 | 209 | 9.7 | 11.3 | 0.00 | 0.00 | 0.00 | 76 | 1013.6 |
| 20260506085912 | 17 | 248 | 9.7 | 11.3 | 0.00 | 0.00 | 0.00 | 76 | 1013.9 |
| 20260506085409 | 17 | 205 | 6.4 | 6.4 | 0.00 | 0.00 | 0.00 | 75 | 1013.9 |
| 20260506084905 | 17 | 167 | 6.4 | 6.4 | 0.00 | 0.00 | 0.00 | 75 | 1013.8 |
| 20260506084402 | 17 | 162 | 6.4 | 6.4 | 0.00 | 0.00 | 0.00 | 75 | 1014.1 |
| 20260506083858 | 17 | 211 | 9.7 | 12.9 | 0.00 | 0.00 | 0.00 | 75 | 1014.0 |
| 20260506083356 | 17 | 189 | 8.0 | 9.7 | 0.00 | 0.00 | 0.00 | 75 | 1013.9 |
| 20260506082853 | 17 | 189 | 8.0 | 9.7 | 0.00 | 0.00 | 0.00 | 75 | 1013.8 |
| 20260506082350 | 17 | 183 | 3.2 | 4.8 | 0.00 | 0.00 | 0.00 | 75 | 1014.1 |
| 20260506081845 | 17 | 210 | 3.2 | 4.8 | 0.00 | 0.00 | 0.00 | 75 | 1014.0 |
| 20260506081344 | 18 | 201 | 4.8 | 4.8 | 0.00 | 0.00 | 0.00 | 74 | 1014.2 |
| 20260506080841 | 18 | 234 | 6.4 | 6.4 | 0.00 | 0.00 | 0.00 | 74 | 1014.0 |
| 20260506080338 | 18 | 179 | 3.2 | 4.8 | 0.00 | 0.00 | 0.00 | 74 | 1014.0 |
| 20260506073321 | 18 | 200 | 4.8 | 4.8 | 0.00 | 0.00 | 0.00 | 74 | 1014.1 |
| 20260506072818 | 18 | 168 | 4.8 | 6.4 | 0.00 | 0.00 | 0.00 | 74 | 1014.0 |
| 20260506072316 | 18 | 205 | 6.4 | 6.4 | 0.00 | 0.00 | 0.00 | 73 | 1014.3 |
| 20260506071813 | 18 | 182 | 3.2 | 4.8 | 0.00 | 0.00 | 0.00 | 73 | 1014.4 |
| 20260506071311 | 18 | 207 | 4.8 | 4.8 | 0.00 | 0.00 | 0.00 | 74 | 1014.4 |
| 20260506070807 | 18 | 191 | 8.0 | 11.3 | 0.00 | 0.00 | 0.00 | 73 | 1014.6 |
| 20260506070304 | 18 | 149 | 6.4 | 9.7 | 0.00 | 0.00 | 0.00 | 73 | 1014.4 |
| 20260506062242 | 18 | 184 | 3.2 | 3.2 | 0.00 | 0.00 | 0.00 | 74 | 1014.2 |
| 20260506061738 | 18 | 215 | 4.8 | 4.8 | 0.00 | 0.00 | 0.00 | 74 | 1014.3 |
| 20260506061236 | 18 | 159 | 6.4 | 9.7 | 0.00 | 0.00 | 0.00 | 74 | 1014.3 |
| 20260506060734 | 18 | 167 | 6.4 | 6.4 | 0.00 | 0.00 | 0.00 | 74 | 1014.2 |
| 20260506060231 | 18 | 177 | 3.2 | 3.2 | 0.00 | 0.00 | 0.00 | 74 | 1014.3 |
| 20260506051156 | 19 | 158 | 8.0 | 11.3 | 0.00 | 0.00 | 0.00 | 72 | 1014.7 |
| 20260506050654 | 19 | 229 | 6.4 | 6.4 | 0.00 | 0.00 | 0.00 | 72 | 1014.6 |
| 20260506050151 | 19 | 203 | 4.8 | 4.8 | 0.00 | 0.00 | 0.00 | 72 | 1014.6 |
| 20260506044642 | 19 | 164 | 9.7 | 12.9 | 0.00 | 0.00 | 0.00 | 71 | 1014.5 |
| 20260506044139 | 19 | 161 | 6.4 | 6.4 | 0.00 | 0.00 | 0.00 | 70 | 1014.4 |
| 20260506043636 | 19 | 215 | 9.7 | 11.3 | 0.00 | 0.00 | 0.00 | 70 | 1014.5 |
| 20260506043134 | 20 | 216 | 11.3 | 12.9 | 0.00 | 0.00 | 0.00 | 69 | 1014.3 |
| 20260506042633 | 20 | 220 | 8.0 | 11.3 | 0.00 | 0.00 | 0.00 | 69 | 1014.4 |
| 20260506042131 | 20 | 231 | 8.0 | 11.3 | 0.00 | 0.00 | 0.00 | 68 | 1014.5 |
| 20260506041629 | 20 | 184 | 9.7 | 12.9 | 0.00 | 0.00 | 0.00 | 67 | 1014.4 |
| 20260506041125 | 20 | 204 | 8.0 | 9.7 | 0.00 | 0.00 | 0.00 | 67 | 1014.4 |
| 20260506040623 | 20 | 201 | 6.4 | 6.4 | 0.00 | 0.00 | 0.00 | 66 | 1014.4 |
| 20260506040120 | 20 | 197 | 6.4 | 9.7 | 0.00 | 0.00 | 0.00 | 65 | 1014.3 |
| 20260506035616 | 20 | 187 | 4.8 | 6.4 | 0.00 | 0.00 | 0.00 | 64 | 1014.1 |
| 20260506035113 | 20 | 259 | 6.4 | 9.7 | 0.00 | 0.00 | 0.00 | 63 | 1014.1 |
| 20260506034611 | 20 | 157 | 4.8 | 4.8 | 0.00 | 0.00 | 0.00 | 63 | 1014.2 |
| 20260506034107 | 20 | 215 | 6.4 | 6.4 | 0.00 | 0.00 | 0.00 | 61 | 1014.3 |
| 20260506033605 | 20 | 201 | 8.0 | 9.7 | 0.00 | 0.00 | 0.00 | 60 | 1014.3 |
| 20260506033101 | 20 | 186 | 6.4 | 6.4 | 0.00 | 0.00 | 0.00 | 59 | 1014.2 |
| 20260506032559 | 20 | 187 | 6.4 | 6.4 | 0.00 | 0.00 | 0.00 | 58 | 1014.4 |
| 20260506032056 | 21 | 164 | 12.9 | 17.7 | 0.00 | 0.00 | 0.00 | 57 | 1014.3 |
| 20260506031553 | 21 | 177 | 4.8 | 4.8 | 0.00 | 0.00 | 0.00 | 55 | 1014.3 |
| 20260506031050 | 21 | 142 | 4.8 | 4.8 | 0.00 | 0.00 | 0.00 | 54 | 1014.3 |
| 20260506030548 | 21 | 142 | 4.8 | 6.4 | 0.00 | 0.00 | 0.00 | 53 | 1014.4 |
| 20260506030045 | 21 | 230 | 1.6 | 3.2 | 0.00 | 0.00 | 0.00 | 53 | 1014.1 |
| 20260506025542 | 21 | 194 | 1.6 | 1.6 | 0.00 | 0.00 | 0.00 | 53 | 1014.2 |
| 20260506025038 | 21 | 216 | 1.6 | 1.6 | 0.00 | 0.00 | 0.00 | 53 | 1014.0 |
| 20260506024535 | 21 | 199 | 0.0 | 1.6 | 0.00 | 0.00 | 0.00 | 53 | 1014.0 |
| 20260506024031 | 21 | 194 | 3.2 | 3.2 | 0.00 | 0.00 | 0.00 | 53 | 1013.9 |
| 20260506023528 | 21 | 218 | 3.2 | 4.8 | 0.00 | 0.00 | 0.00 | 52 | 1013.9 |
| 20260506023025 | 21 | 201 | 3.2 | 4.8 | 0.00 | 0.00 | 0.00 | 52 | 1013.8 |
| 20260506022523 | 21 | 164 | 3.2 | 4.8 | 0.00 | 0.00 | 0.00 | 52 | 1013.5 |
| 20260506022020 | 22 | 196 | 3.2 | 3.2 | 0.00 | 0.00 | 0.00 | 52 | 1013.8 |
| 20260506021517 | 22 | 206 | 1.6 | 1.6 | 0.00 | 0.00 | 0.00 | 51 | 1013.8 |
| 20260506021014 | 22 | 184 | 3.2 | 4.8 | 0.00 | 0.00 | 0.00 | 51 | 1013.7 |
| 20260506020512 | 22 | 142 | 3.2 | 3.2 | 0.00 | 0.00 | 0.00 | 51 | 1013.9 |
| 20260506020009 | 22 | 155 | 3.2 | 4.8 | 0.00 | 0.00 | 0.00 | 51 | 1014.0 |
| 20260506015507 | 22 | 219 | 1.6 | 1.6 | 0.00 | 0.00 | 0.00 | 52 | 1014.1 |
| 20260506015003 | 22 | 204 | 3.2 | 3.2 | 0.00 | 0.00 | 0.00 | 51 | 1014.1 |
| 20260506014501 | 22 | 210 | 1.6 | 3.2 | 0.00 | 0.00 | 0.00 | 50 | 1014.1 |
| 20260506013956 | 22 | 225 | 1.6 | 1.6 | 0.00 | 0.00 | 0.00 | 49 | 1014.1 |
| 20260506013455 | 22 | 195 | 3.2 | 4.8 | 0.00 | 0.00 | 0.00 | 48 | 1014.0 |
| 20260506012950 | 22 | 198 | 4.8 | 4.8 | 0.00 | 0.00 | 0.00 | 48 | 1014.1 |
| 20260506012447 | 22 | 223 | 1.6 | 3.2 | 0.00 | 0.00 | 0.00 | 48 | 1014.1 |
| 20260506011944 | 23 | 218 | 3.2 | 3.2 | 0.00 | 0.00 | 0.00 | 48 | 1013.8 |
| 20260506011442 | 23 | 225 | 1.6 | 1.6 | 0.00 | 0.00 | 0.00 | 48 | 1014.1 |
| 20260506010938 | 23 | 232 | 3.2 | 3.2 | 0.00 | 0.00 | 0.00 | 48 | 1014.2 |
| 20260506010437 | 23 | 211 | 3.2 | 3.2 | 0.00 | 0.00 | 0.00 | 48 | 1014.1 |
| 20260506005933 | 23 | 237 | 3.2 | 3.2 | 0.00 | 0.00 | 0.00 | 48 | 1013.9 |
| 20260506005431 | 23 | 201 | 1.6 | 3.2 | 0.00 | 0.00 | 0.00 | 48 | 1014.1 |
| 20260506004926 | 23 | 227 | 3.2 | 3.2 | 0.00 | 0.00 | 0.00 | 48 | 1014.1 |
| 20260506004424 | 23 | 217 | 3.2 | 4.8 | 0.00 | 0.00 | 0.00 | 47 | 1013.9 |
| 20260506003920 | 23 | 211 | 1.6 | 1.6 | 0.00 | 0.00 | 0.00 | 47 | 1014.3 |
| 20260506003416 | 23 | 224 | 1.6 | 3.2 | 0.00 | 0.00 | 0.00 | 46 | 1014.0 |
| 20260506002913 | 23 | 229 | 3.2 | 4.8 | 0.00 | 0.00 | 0.00 | 45 | 1014.0 |
| 20260506002409 | 23 | 224 | 1.6 | 3.2 | 0.00 | 0.00 | 0.00 | 46 | 1014.0 |
| 20260506001904 | 23 | 223 | 3.2 | 3.2 | 0.00 | 0.00 | 0.00 | 46 | 1013.6 |
| 20260506001402 | 23 | 231 | 1.6 | 1.6 | 0.00 | 0.00 | 0.00 | 46 | 1013.9 |
| 20260506000859 | 24 | 242 | 3.2 | 3.2 | 0.00 | 0.00 | 0.00 | 45 | 1013.5 |
| 20260506000357 | 24 | 226 | 3.2 | 4.8 | 0.00 | 0.00 | 0.00 | 44 | 1013.6 |
| 20260505235853 | 25 | 233 | 4.8 | 4.8 | 0.00 | 0.00 | 0.00 | 43 | 1013.5 |
| 20260505235351 | 25 | 220 | 6.4 | 6.4 | 0.00 | 0.00 | 0.00 | 43 | 1013.6 |
| 20260505234848 | 25 | 227 | 1.6 | 1.6 | 0.00 | 0.00 | 0.00 | 43 | 1013.6 |
| 20260505234346 | 25 | 225 | 4.8 | 6.4 | 0.00 | 0.00 | 0.00 | 42 | 1013.5 |
| 20260505233842 | 25 | 216 | 6.4 | 9.7 | 0.00 | 0.00 | 0.00 | 41 | 1013.6 |
| 20260505233340 | 25 | 253 | 4.8 | 4.8 | 0.00 | 0.00 | 0.00 | 41 | 1013.5 |
| 20260505232837 | 25 | 169 | 4.8 | 6.4 | 0.00 | 0.00 | 0.00 | 40 | 1013.6 |
| 20260505232335 | 26 | 189 | 4.8 | 6.4 | 0.00 | 0.00 | 0.00 | 40 | 1013.5 |
| 20260505231831 | 26 | 246 | 3.2 | 3.2 | 0.00 | 0.00 | 0.00 | 40 | 1013.7 |
| 20260505231329 | 26 | 233 | 6.4 | 9.7 | 0.00 | 0.00 | 0.00 | 39 | 1013.9 |
| 20260505230827 | 26 | 182 | 9.7 | 11.3 | 0.00 | 0.00 | 0.00 | 39 | 1013.8 |
| 20260505230324 | 26 | 203 | 8.0 | 9.7 | 0.00 | 0.00 | 0.00 | 39 | 1013.4 |
| 20260505225820 | 26 | 224 | 14.5 | 20.9 | 0.00 | 0.00 | 0.00 | 38 | 1013.7 |
| 20260505225318 | 26 | 167 | 14.5 | 20.9 | 0.00 | 0.00 | 0.00 | 37 | 1013.8 |
| 20260505224813 | 26 | 216 | 8.0 | 9.7 | 0.00 | 0.00 | 0.00 | 39 | 1013.6 |
| 20260505224311 | 26 | 175 | 11.3 | 12.9 | 0.00 | 0.00 | 0.00 | 38 | 1013.6 |
| 20260505223808 | 26 | 213 | 8.0 | 9.7 | 0.00 | 0.00 | 0.00 | 38 | 1013.6 |
| 20260505223305 | 26 | 257 | 9.7 | 11.3 | 0.00 | 0.00 | 0.00 | 38 | 1013.7 |
| 20260505222800 | 26 | 238 | 11.3 | 14.5 | 0.00 | 0.00 | 0.00 | 37 | 1013.6 |
| 20260505222257 | 26 | 190 | 11.3 | 16.1 | 0.00 | 0.00 | 0.00 | 37 | 1013.5 |
| 20260505221754 | 26 | 188 | 11.3 | 12.9 | 0.00 | 0.00 | 0.00 | 37 | 1013.5 |
| 20260505221251 | 26 | 228 | 8.0 | 11.3 | 0.00 | 0.00 | 0.00 | 37 | 1013.6 |
| 20260505220742 | 26 | 158 | 9.7 | 11.3 | 0.00 | 0.00 | 0.00 | 38 | 1013.4 |
| 20260505220239 | 26 | 240 | 9.7 | 11.3 | 0.00 | 0.00 | 0.00 | 37 | 1013.4 |
| 20260505215738 | 26 | 212 | 14.5 | 17.7 | 0.00 | 0.00 | 0.00 | 37 | 1013.5 |
| 20260505215235 | 26 | 165 | 8.0 | 9.7 | 0.00 | 0.00 | 0.00 | 37 | 1013.3 |
| 20260505214733 | 26 | 208 | 9.7 | 12.9 | 0.00 | 0.00 | 0.00 | 36 | 1013.3 |
| 20260505214230 | 26 | 221 | 9.7 | 11.3 | 0.00 | 0.00 | 0.00 | 37 | 1013.6 |
| 20260505213727 | 26 | 218 | 9.7 | 11.3 | 0.00 | 0.00 | 0.00 | 35 | 1013.6 |
| 20260505213224 | 26 | 220 | 9.7 | 11.3 | 0.00 | 0.00 | 0.00 | 36 | 1013.6 |
| 20260505212720 | 26 | 232 | 8.0 | 11.3 | 0.00 | 0.00 | 0.00 | 36 | 1013.7 |
| 20260505212218 | 26 | 194 | 8.0 | 16.1 | 0.00 | 0.00 | 0.00 | 36 | 1013.9 |
| 20260505211715 | 27 | 212 | 9.7 | 11.3 | 0.00 | 0.00 | 0.00 | 36 | 1013.7 |
| 20260505211212 | 27 | 251 | 11.3 | 16.1 | 0.00 | 0.00 | 0.00 | 36 | 1013.6 |
| 20260505210709 | 26 | 227 | 14.5 | 16.1 | 0.00 | 0.00 | 0.00 | 36 | 1013.7 |
| 20260505210205 | 26 | 225 | 11.3 | 14.5 | 0.00 | 0.00 | 0.00 | 37 | 1013.9 |
| 20260505205703 | 26 | 244 | 9.7 | 11.3 | 0.00 | 0.00 | 0.00 | 38 | 1014.0 |
| 20260505205201 | 26 | 221 | 11.3 | 12.9 | 0.00 | 0.00 | 0.00 | 37 | 1013.8 |
| 20260505204657 | 26 | 179 | 9.7 | 11.3 | 0.00 | 0.00 | 0.00 | 37 | 1014.1 |
| 20260505204155 | 26 | 206 | 8.0 | 9.7 | 0.00 | 0.00 | 0.00 | 36 | 1014.0 |
| 20260505203652 | 26 | 225 | 16.1 | 17.7 | 0.00 | 0.00 | 0.00 | 36 | 1013.9 |
| 20260505203148 | 26 | 235 | 9.7 | 11.3 | 0.00 | 0.00 | 0.00 | 37 | 1013.9 |
| 20260505202644 | 26 | 229 | 6.4 | 6.4 | 0.00 | 0.00 | 0.00 | 36 | 1013.9 |
| 20260505202140 | 26 | 248 | 14.5 | 14.5 | 0.00 | 0.00 | 0.00 | 36 | 1013.9 |
| 20260505201636 | 26 | 221 | 9.7 | 12.9 | 0.00 | 0.00 | 0.00 | 37 | 1014.4 |
| 20260505201134 | 26 | 220 | 9.7 | 11.3 | 0.00 | 0.00 | 0.00 | 37 | 1014.4 |
| 20260505200632 | 26 | 264 | 6.4 | 6.4 | 0.00 | 0.00 | 0.00 | 37 | 1014.5 |
| 20260505200129 | 26 | 171 | 9.7 | 11.3 | 0.00 | 0.00 | 0.00 | 37 | 1014.6 |
| 20260505195625 | 26 | 233 | 16.1 | 17.7 | 0.00 | 0.00 | 0.00 | 39 | 1014.6 |
| 20260505195123 | 26 | 230 | 6.4 | 9.7 | 0.00 | 0.00 | 0.00 | 38 | 1014.9 |
| 20260505194620 | 26 | 228 | 12.9 | 16.1 | 0.00 | 0.00 | 0.00 | 37 | 1014.7 |
| 20260505194115 | 26 | 235 | 11.3 | 14.5 | 0.00 | 0.00 | 0.00 | 38 | 1014.9 |
| 20260505193613 | 26 | 236 | 12.9 | 16.1 | 0.00 | 0.00 | 0.00 | 38 | 1014.8 |
| 20260505193109 | 26 | 232 | 8.0 | 9.7 | 0.00 | 0.00 | 0.00 | 36 | 1015.1 |
| 20260505192603 | 26 | 237 | 9.7 | 12.9 | 0.00 | 0.00 | 0.00 | 37 | 1015.2 |
| 20260505192059 | 26 | 228 | 19.3 | 24.1 | 0.00 | 0.00 | 0.00 | 35 | 1015.1 |
| 20260505191557 | 26 | 225 | 11.3 | 12.9 | 0.00 | 0.00 | 0.00 | 36 | 1014.9 |
| 20260505191055 | 26 | 243 | 12.9 | 14.5 | 0.00 | 0.00 | 0.00 | 36 | 1015.2 |
| 20260505190550 | 26 | 214 | 17.7 | 22.5 | 0.00 | 0.00 | 0.00 | 35 | 1015.1 |
| 20260505190046 | 26 | 221 | 9.7 | 12.9 | 0.00 | 0.00 | 0.00 | 34 | 1015.3 |
| 20260505185543 | 26 | 249 | 3.2 | 4.8 | 0.00 | 0.00 | 0.00 | 36 | 1015.2 |
| 20260505185039 | 26 | 224 | 12.9 | 14.5 | 0.00 | 0.00 | 0.00 | 36 | 1015.1 |
| 20260505184536 | 26 | 245 | 6.4 | 6.4 | 0.00 | 0.00 | 0.00 | 35 | 1015.4 |
| 20260505184033 | 26 | 183 | 4.8 | 9.7 | 0.00 | 0.00 | 0.00 | 37 | 1015.3 |
| 20260505183529 | 25 | 167 | 8.0 | 11.3 | 0.00 | 0.00 | 0.00 | 37 | 1015.4 |
| 20260505183027 | 26 | 203 | 12.9 | 14.5 | 0.00 | 0.00 | 0.00 | 36 | 1015.7 |
| 20260505182523 | 26 | 219 | 12.9 | 14.5 | 0.00 | 0.00 | 0.00 | 36 | 1015.8 |
| 20260505182020 | 25 | 226 | 8.0 | 9.7 | 0.00 | 0.00 | 0.00 | 37 | 1015.9 |
| 20260505181517 | 25 | 210 | 8.0 | 11.3 | 0.00 | 0.00 | 0.00 | 38 | 1016.1 |
| 20260505181014 | 25 | 239 | 11.3 | 14.5 | 0.00 | 0.00 | 0.00 | 38 | 1016.2 |
| 20260505180509 | 26 | 197 | 6.4 | 9.7 | 0.00 | 0.00 | 0.00 | 37 | 1016.1 |
| 20260505180008 | 25 | 188 | 14.5 | 16.1 | 0.00 | 0.00 | 0.00 | 38 | 1016.3 |
| 20260505175502 | 25 | 235 | 9.7 | 11.3 | 0.00 | 0.00 | 0.00 | 37 | 1016.2 |
| 20260505174959 | 25 | 254 | 9.7 | 12.9 | 0.00 | 0.00 | 0.00 | 37 | 1016.3 |
| 20260505174457 | 26 | 257 | 11.3 | 12.9 | 0.00 | 0.00 | 0.00 | 36 | 1016.5 |
| 20260505173952 | 26 | 230 | 11.3 | 12.9 | 0.00 | 0.00 | 0.00 | 36 | 1016.4 |
| 20260505173449 | 25 | 197 | 11.3 | 12.9 | 0.00 | 0.00 | 0.00 | 36 | 1016.3 |
| 20260505172946 | 25 | 249 | 9.7 | 12.9 | 0.00 | 0.00 | 0.00 | 36 | 1016.2 |
| 20260505172445 | 25 | 212 | 11.3 | 12.9 | 0.00 | 0.00 | 0.00 | 35 | 1016.4 |
| 20260505171944 | 25 | 229 | 16.1 | 17.7 | 0.00 | 0.00 | 0.00 | 36 | 1016.2 |
| 20260505171441 | 25 | 147 | 9.7 | 11.3 | 0.00 | 0.00 | 0.00 | 37 | 1016.1 |
| 20260505170937 | 25 | 224 | 6.4 | 6.4 | 0.00 | 0.00 | 0.00 | 38 | 1016.2 |
| 20260505170434 | 24 | 214 | 16.1 | 16.1 | 0.00 | 0.00 | 0.00 | 38 | 1016.0 |
| 20260505165930 | 25 | 235 | 12.9 | 17.7 | 0.00 | 0.00 | 0.00 | 38 | 1016.0 |
| 20260505165426 | 24 | 244 | 6.4 | 6.4 | 0.00 | 0.00 | 0.00 | 37 | 1016.4 |
| 20260505164921 | 25 | 216 | 14.5 | 16.1 | 0.00 | 0.00 | 0.00 | 40 | 1016.4 |
| 20260505164413 | 25 | 232 | 12.9 | 17.7 | 0.00 | 0.00 | 0.00 | 41 | 1016.6 |
| 20260505163911 | 24 | 179 | 19.3 | 25.7 | 0.00 | 0.00 | 0.00 | 40 | 1016.4 |
| 20260505163410 | 24 | 221 | 20.9 | 24.1 | 0.00 | 0.00 | 0.00 | 39 | 1016.4 |
| 20260505162908 | 24 | 209 | 14.5 | 14.5 | 0.00 | 0.00 | 0.00 | 44 | 1016.6 |
| 20260505162403 | 23 | 220 | 12.9 | 14.5 | 0.00 | 0.00 | 0.00 | 45 | 1016.6 |
| 20260505161900 | 23 | 255 | 6.4 | 9.7 | 0.00 | 0.00 | 0.00 | 43 | 1017.0 |
| 20260505161357 | 24 | 223 | 9.7 | 12.9 | 0.00 | 0.00 | 0.00 | 42 | 1016.8 |
| 20260505160854 | 23 | 231 | 6.4 | 6.4 | 0.00 | 0.00 | 0.00 | 42 | 1017.0 |
| 20260505160353 | 23 | 197 | 8.0 | 11.3 | 0.00 | 0.00 | 0.00 | 41 | 1017.0 |
| 20260505153332 | 23 | 182 | 4.8 | 6.4 | 0.00 | 0.00 | 0.00 | 51 | 1016.9 |
| 20260505152829 | 23 | 237 | 4.8 | 4.8 | 0.00 | 0.00 | 0.00 | 54 | 1017.3 |
| 20260505152326 | 22 | 249 | 3.2 | 4.8 | 0.00 | 0.00 | 0.00 | 54 | 1017.2 |
| 20260505151825 | 22 | 252 | 3.2 | 3.2 | 0.00 | 0.00 | 0.00 | 54 | 1017.3 |
| 20260505151322 | 21 | 245 | 8.0 | 11.3 | 0.00 | 0.00 | 0.00 | 55 | 1017.3 |
| 20260505150819 | 22 | 255 | 9.7 | 12.9 | 0.00 | 0.00 | 0.00 | 55 | 1017.2 |
| 20260505150316 | 22 | 251 | 9.7 | 12.9 | 0.00 | 0.00 | 0.00 | 55 | 1017.3 |
| 20260505140240 | 20 | 222 | 9.7 | 11.3 | 0.00 | 0.00 | 0.00 | 69 | 1016.8 |
| 20260505130204 | 17 | 214 | 9.7 | 12.9 | 0.00 | 0.00 | 0.00 | 78 | 1016.5 |
| 20260505124654 | 16 | 198 | 6.4 | 9.7 | 0.00 | 0.00 | 0.00 | 80 | 1016.6 |
| 20260505124151 | 16 | 220 | 8.0 | 9.7 | 0.00 | 0.00 | 0.00 | 80 | 1016.6 |
| 20260505123648 | 15 | 199 | 1.6 | 1.6 | 0.00 | 0.00 | 0.00 | 81 | 1016.7 |
| 20260505123145 | 15 | 214 | 3.2 | 4.8 | 0.00 | 0.00 | 0.00 | 82 | 1016.5 |
| 20260505122641 | 15 | 192 | 4.8 | 4.8 | 0.00 | 0.00 | 0.00 | 82 | 1016.4 |
| 20260505122138 | 15 | 225 | 3.2 | 3.2 | 0.00 | 0.00 | 0.00 | 83 | 1016.4 |
| 20260505121634 | 14 | 226 | 3.2 | 3.2 | 0.00 | 0.00 | 0.00 | 83 | 1016.5 |
| 20260505121131 | 14 | 240 | 3.2 | 4.8 | 0.00 | 0.00 | 0.00 | 83 | 1016.4 |
| 20260505120627 | 14 | 237 | 3.2 | 3.2 | 0.00 | 0.00 | 0.00 | 83 | 1016.2 |
| 20260505120123 | 15 | 245 | 0.0 | 0.0 | 0.00 | 0.00 | 0.00 | 80 | 1016.2 |
| 20260505115617 | 15 | 218 | 0.0 | 1.6 | 0.00 | 0.00 | 0.00 | 81 | 1016.1 |
| 20260505115115 | 15 | 231 | 0.0 | 0.0 | 0.00 | 0.00 | 0.00 | 79 | 1016.0 |
| 20260505114612 | 13 | 234 | 0.0 | 0.0 | 0.00 | 0.00 | 0.00 | 86 | 1016.1 |